Date String (YYYY-MM-DD hh:mm:ss) UTC,Instrument flags,Ambient pressure (hPa),Sample flow (lpm),Bypass flow (lpm),Sample temperature (°C),Ambient temperature (°C),ASC tube jacket temperature (°C),LED temperature (°C),Box temperature (°C),Sample RH (%),Span deviation,Mass concentration (μg/m³),Mass concentration (μg/m³),Mass concentration (μg/m³)
DateTimeUTC,F1_M11,P_M11,Q1_M11,Q2_M11,T1_M11,T2_M11,T3_M11,T4_M11,T5_M11,U1_M11,ZSPAN_M11,X0_M11,X2_M11,X1_M11
2022-01-22 15:00:00,,0831.1,4.99,0.00,22.4,22.0,00.0,31.3,24.0,11.0,0000.0,0003.33,0003.27,0003.23
2022-01-22 15:01:00,,0831.2,5.00,0.00,22.3,21.9,00.0,31.3,24.0,11.0,0000.0,0003.34,0003.28,0003.24
2022-01-22 15:02:00,,0831.2,5.00,0.00,22.3,21.8,00.0,31.3,24.0,11.0,0000.0,0003.40,0003.31,0003.25
2022-01-22 15:03:00,,0831.1,5.01,0.00,22.3,21.7,00.0,31.3,23.9,11.1,0000.0,0003.44,0003.32,0003.26
2022-01-22 15:04:00,,0831.2,5.00,0.00,22.2,21.7,00.0,31.3,23.9,11.2,0000.0,0003.48,0003.34,0003.28
2022-01-22 15:05:00,,0831.2,5.00,0.00,22.2,21.6,00.0,31.3,23.9,11.2,0000.0,0003.48,0003.34,0003.29
2022-01-22 15:06:00,,0831.2,4.97,0.00,22.2,21.6,00.0,31.3,23.9,11.1,0000.0,0003.43,0003.33,0003.28
2022-01-22 15:07:00,,0831.2,5.01,0.00,22.2,21.5,00.0,31.3,23.9,11.2,0000.0,0003.49,0003.36,0003.30
2022-01-22 15:08:00,,0831.2,5.00,0.00,22.2,21.5,00.0,31.3,23.8,11.3,0000.0,0003.52,0003.37,0003.32
2022-01-22 15:09:00,,0831.2,5.00,0.00,22.1,21.5,00.0,31.3,23.8,11.4,0000.0,0003.54,0003.39,0003.33
2022-01-22 15:10:00,,0831.2,4.99,0.00,22.1,21.5,00.0,31.2,23.8,11.4,0000.0,0003.60,0003.41,0003.35
2022-01-22 15:11:00,,0831.2,5.01,0.00,22.2,22.0,00.0,31.3,23.9,11.4,0000.0,0003.63,0003.41,0003.35
2022-01-22 15:12:00,,0831.2,5.00,0.00,22.3,22.9,00.0,31.3,24.3,11.3,0000.0,0003.61,0003.41,0003.35
2022-01-22 15:13:00,,0831.2,5.00,0.00,22.5,23.3,00.0,31.3,24.5,11.3,0000.0,0003.59,0003.41,0003.36
2022-01-22 15:14:00,,0831.2,5.00,0.00,22.5,23.1,00.0,31.4,24.4,11.2,0000.0,0003.59,0003.42,0003.38
2022-01-22 15:15:00,,0831.2,5.00,0.00,22.5,22.8,00.0,31.4,24.4,11.2,0000.0,0003.62,0003.44,0003.40
2022-01-22 15:16:00,,0831.1,4.99,0.00,22.5,22.6,00.0,31.4,24.3,11.2,0000.0,0003.71,0003.47,0003.42
2022-01-22 15:17:00,,0831.2,5.01,0.00,22.5,22.5,00.0,31.4,24.3,11.3,0000.0,0003.76,0003.51,0003.45
2022-01-22 15:18:00,,0831.2,4.99,0.00,22.5,22.3,00.0,31.4,24.3,11.4,0000.0,0003.79,0003.52,0003.47
2022-01-22 15:19:00,,0831.2,4.99,0.00,22.5,22.2,00.0,31.4,24.2,11.4,0000.0,0003.88,0003.56,0003.50
2022-01-22 15:20:00,,0831.1,5.01,0.00,22.5,22.1,00.0,31.4,24.2,11.4,0000.0,0004.06,0003.62,0003.53
2022-01-22 15:21:00,,0831.1,4.99,0.00,22.5,22.1,00.0,31.4,24.2,11.6,0000.0,0004.07,0003.63,0003.55
2022-01-22 15:22:00,,0831.2,5.00,0.00,22.4,22.0,00.0,31.4,24.2,11.6,0000.0,0004.10,0003.65,0003.56
2022-01-22 15:23:00,,0831.1,5.00,0.00,22.4,21.9,00.0,31.4,24.2,11.6,0000.0,0004.17,0003.68,0003.59
2022-01-22 15:24:00,,0831.1,5.01,0.00,22.4,21.9,00.0,31.4,24.2,11.6,0000.0,0004.21,0003.71,0003.62
2022-01-22 15:25:00,,0831.1,4.98,0.00,22.4,21.9,00.0,31.4,24.2,11.6,0000.0,0004.24,0003.72,0003.63
2022-01-22 15:26:00,,0831.1,5.01,0.00,22.4,21.9,00.0,31.4,24.1,11.6,0000.0,0004.27,0003.74,0003.65
2022-01-22 15:27:00,,0831.1,5.00,0.00,22.4,21.8,00.0,31.4,24.1,11.7,0000.0,0004.27,0003.74,0003.65
2022-01-22 15:28:00,,0831.1,5.01,0.00,22.4,21.8,00.0,31.4,24.1,11.7,0000.0,0004.30,0003.76,0003.67
2022-01-22 15:29:00,,0831.1,4.99,0.00,22.4,21.8,00.0,31.4,24.1,11.7,0000.0,0004.30,0003.77,0003.68
2022-01-22 15:30:00,,0831.1,5.00,0.00,22.4,21.8,00.0,31.4,24.1,11.8,0000.0,0004.25,0003.76,0003.69
2022-01-22 15:31:00,,0831.1,5.01,0.00,22.4,21.8,00.0,31.4,24.1,11.9,0000.0,0004.24,0003.76,0003.70
2022-01-22 15:32:00,,0831.1,4.99,0.00,22.4,21.8,00.0,31.4,24.1,11.9,0000.0,0004.28,0003.78,0003.72
2022-01-22 15:33:00,,0831.1,5.01,0.00,22.4,21.8,00.0,31.4,24.1,11.9,0000.0,0004.33,0003.81,0003.74
2022-01-22 15:34:00,,0831.2,5.00,0.00,22.4,21.8,00.0,31.4,24.1,11.9,0000.0,0004.37,0003.83,0003.76
2022-01-22 15:35:00,,0831.2,4.99,0.00,22.4,21.8,00.0,31.4,24.1,12.0,0000.0,0004.35,0003.83,0003.76
2022-01-22 15:36:00,,0831.2,5.01,0.00,22.4,21.8,00.0,31.4,24.1,12.2,0000.0,0004.29,0003.82,0003.76
2022-01-22 15:37:00,,0831.2,4.99,0.00,22.4,21.8,00.0,31.4,24.1,12.4,0000.0,0004.28,0003.82,0003.76
2022-01-22 15:38:00,,0831.1,5.00,0.00,22.4,21.8,00.0,31.4,24.1,12.3,0000.0,0004.32,0003.83,0003.77
2022-01-22 15:39:00,,0831.1,5.02,0.00,22.4,21.7,00.0,31.4,24.1,12.6,0000.0,0004.30,0003.82,0003.76
2022-01-22 15:40:00,,0831.1,4.99,0.00,22.4,21.8,00.0,31.4,24.1,12.7,0000.0,0004.30,0003.81,0003.74
2022-01-22 15:41:00,,0831.1,5.00,0.00,22.5,22.5,00.0,31.4,24.3,12.7,0000.0,0004.28,0003.79,0003.71
2022-01-22 15:42:00,,0831.2,5.01,0.00,22.6,23.5,00.0,31.5,24.6,12.5,0000.0,0004.15,0003.76,0003.69
2022-01-22 15:43:00,,0831.2,5.00,0.00,22.8,23.7,00.0,31.5,24.8,12.4,0000.0,0004.85,0003.73,0003.66
2022-01-22 15:44:00,,0831.2,4.99,0.00,22.8,23.4,00.0,31.5,24.8,12.6,0000.0,0005.20,0003.70,0003.64
2022-01-22 15:45:00,,0831.2,5.01,0.00,22.8,23.2,00.0,31.6,24.7,12.5,0000.0,0005.15,0003.67,0003.61
2022-01-22 15:46:00,,0831.2,5.00,0.00,22.8,23.0,00.0,31.6,24.7,12.7,0000.0,0005.11,0003.64,0003.58
2022-01-22 15:47:00,,0831.2,4.99,0.00,22.8,22.8,00.0,31.6,24.7,12.3,0000.0,0005.14,0003.64,0003.57
2022-01-22 15:48:00,,0831.2,5.01,0.00,22.8,22.7,00.0,31.6,24.7,11.9,0000.0,0005.15,0003.63,0003.56
2022-01-22 15:49:00,,0831.2,4.99,0.00,22.8,22.6,00.0,31.6,24.6,12.1,0000.0,0005.07,0003.60,0003.53
2022-01-22 15:50:00,,0831.2,5.01,0.00,22.8,22.6,00.0,31.7,24.6,11.9,0000.0,0005.09,0003.59,0003.52
2022-01-22 15:51:00,,0831.2,5.00,0.00,22.8,22.5,00.0,31.7,24.6,12.0,0000.0,0005.01,0003.56,0003.50
2022-01-22 15:52:00,,0831.1,5.01,0.00,22.8,22.4,00.0,31.7,24.6,12.5,0000.0,0004.98,0003.55,0003.49
2022-01-22 15:53:00,,0831.2,4.99,0.00,22.8,22.4,00.0,31.7,24.6,12.6,0000.0,0004.95,0003.53,0003.48
2022-01-22 15:54:00,,0831.1,5.01,0.00,22.8,22.4,00.0,31.7,24.6,12.4,0000.0,0004.10,0003.52,0003.46
2022-01-22 15:55:00,,0831.1,5.01,0.00,22.8,22.4,00.0,31.7,24.6,11.9,0000.0,0003.70,0003.50,0003.45
2022-01-22 15:56:00,,0831.2,5.00,0.00,22.8,22.3,00.0,31.7,24.6,11.6,0000.0,0003.67,0003.48,0003.43
2022-01-22 15:57:00,,0831.1,4.99,0.00,22.8,22.3,00.0,31.7,24.6,11.5,0000.0,0003.68,0003.48,0003.43
2022-01-22 15:58:00,,0831.2,5.01,0.00,22.9,22.3,00.0,31.7,24.7,11.4,0000.0,0003.63,0003.46,0003.42
2022-01-22 15:59:00,,0831.2,5.00,0.00,22.9,22.3,00.0,31.8,24.7,11.6,0000.0,0003.57,0003.44,0003.40
